Hutchinson, KS

1:59 PM CDT on September 18, 2019 (GMT -0500)
Hutchinson Municipal

Weather History for KHUT - July, 2019

Change the Weather History Date:

Wednesday, July 17, 2019

  Actual Average Record
Temperature  
Mean Temperature 88 °F -  
Max Temperature 104 °F 91 °F 105 °F (2001)
Min Temperature 75 °F 66 °F 61 °F (2014)
Cooling Degree Days 24    
Growing Degree Days 38 (Base 50)    
Moisture  
Dew Point 68 °F    
Average Humidity 54    
Maximum Humidity 85    
Minimum Humidity 28    
Precipitation  
Precipitation 0.00 in - - ()
Sea Level Pressure  
Sea Level Pressure 29.77 in    
Wind  
Wind Speed 12 mph (South)    
Max Wind Speed 26 mph    
Max Gust Speed 39 mph    
Visibility 10 miles    
Events      
Averages and records for this station are not official NWS values.
T = Trace of Precipitation, MM = Missing Value Source: NWS Daily Summary

Daily Weather History Graph

Daily Weather History Graph

Search for Another Location

Airport or City:

Astronomy

Jul. 17, 2019 Rise Set
Actual Time 6:22 AM CDT 8:52 PM CDT
Civil Twilight 5:51 AM CDT 9:23 PM CDT
Nautical Twilight 5:13 AM CDT 10:00 PM CDT
Astronomical Twilight 4:31 AM CDT 10:42 PM CDT
Moon 9:42 PM CDT (7/17) 6:55 AM CDT (7/17)
Length of Visible Light 15h 31m
Length of Day
14h 30m
Full, 99% of the Moon is Illuminated
Jul 17
Full
Jul 24
Last Quarter
Jul 31
New
Aug 7
First Quarter
Aug 15
Full

Hourly Weather History & Observations

Time (CDT) Temp. Heat Index Dew Point Humidity Pressure Visibility Wind Dir Wind Speed Gust Speed Precip Events Conditions
12:52 AM 77.0 °F - 68.0 °F 74% 29.82 in 10.0 mi SE 6.9 mph - N/A   Clear
1:52 AM 75.0 °F - 69.1 °F 82% 29.81 in 10.0 mi SSE 5.8 mph - N/A   Clear
2:52 AM 75.9 °F - 71.1 °F 85% 29.81 in 10.0 mi SE 5.8 mph - N/A   Clear
3:52 AM 77.0 °F - 71.1 °F 82% 29.80 in 10.0 mi SSE 5.8 mph - N/A   Mostly Cloudy
4:52 AM 78.1 °F - 70.0 °F 76% 29.79 in 10.0 mi South 6.9 mph - N/A   Scattered Clouds
5:52 AM 79.0 °F - 69.1 °F 72% 29.79 in 10.0 mi SSE 10.4 mph - N/A   Scattered Clouds
6:52 AM 77.0 °F - 70.0 °F 79% 29.79 in 10.0 mi SSE 11.5 mph - N/A   Partly Cloudy
7:52 AM 79.0 °F - 70.0 °F 74% 29.81 in 10.0 mi SSE 10.4 mph - N/A   Partly Cloudy
8:52 AM 84.0 °F 88.4 °F 70.0 °F 63% 29.80 in 10.0 mi South 16.1 mph 23.0 mph N/A   Clear
9:52 AM 88.0 °F 93.8 °F 71.1 °F 57% 29.81 in 10.0 mi SSW 12.7 mph - N/A   Clear
10:52 AM 91.0 °F 96.6 °F 70.0 °F 50% 29.80 in 10.0 mi South 16.1 mph - N/A   Clear
11:52 AM 95.0 °F 101.3 °F 70.0 °F 44% 29.79 in 10.0 mi South 18.4 mph 28.8 mph N/A   Clear
12:52 PM 98.1 °F 105.0 °F 70.0 °F 40% 29.78 in 10.0 mi South 24.2 mph - N/A   Clear
1:52 PM 100.9 °F 106.7 °F 68.0 °F 34% 29.76 in 10.0 mi SSW 25.3 mph 38.0 mph N/A   Clear
2:52 PM 102.0 °F 105.9 °F 64.9 °F 30% 29.75 in 10.0 mi SSW 24.2 mph 34.5 mph N/A   Clear
3:52 PM 102.0 °F 105.2 °F 64.0 °F 29% 29.73 in 10.0 mi South 25.3 mph 39.1 mph N/A   Clear
4:52 PM 102.0 °F 105.2 °F 64.0 °F 29% 29.73 in 10.0 mi South 20.7 mph 34.5 mph N/A   Clear
5:52 PM 100.0 °F 101.2 °F 61.0 °F 28% 29.72 in 10.0 mi South 26.5 mph 36.8 mph N/A   Clear
6:52 PM 98.1 °F 100.7 °F 64.0 °F 33% 29.71 in 10.0 mi South 19.6 mph - N/A   Clear
7:52 PM 95.0 °F 97.0 °F 64.0 °F 36% 29.72 in 10.0 mi South 18.4 mph - N/A   Clear
8:52 PM 91.0 °F 93.0 °F 64.9 °F 42% 29.71 in 10.0 mi South 13.8 mph - N/A   Clear
9:52 PM 89.1 °F 91.0 °F 64.9 °F 45% 29.72 in 10.0 mi South 13.8 mph - N/A   Clear
10:52 PM 87.1 °F 89.9 °F 66.9 °F 51% 29.76 in 10.0 mi South 12.7 mph - N/A   Clear
11:52 PM 84.9 °F 88.2 °F 68.0 °F 57% 29.77 in 10.0 mi South 13.8 mph - N/A   Clear